Theta_e
344 336 335 335 339 340 335 333 333 333 334 335 336 336 336 336 336 335 331 328 327 329 333 340 326 320 323 320 317 316 317 319 320 320 329 330 331 332 329 330 328 326 316
343 335 337 338 338 335 333 334 334 335 336 337 338 338 337 338 338 337 337 336 334 330 328 332 335 333 331 331 331 330 324 316 315 316 316 318 331 332 331 331 330 328 320
342 338 339 336 336 334 335 335 337 340 340 340 340 339 339 339 339 339 339 339 339 338 337 333 331 333 333 332 331 331 329 330 327 317 315 324 330 331 331 326 325 323 326
342 339 337 336 336 337 339 340 339 338 338 337 336 336 335 335 336 337 337 338 337 337 337 338 338 337 336 334 332 331 331 330 329 330 326 326 328 329 329 326 320 323 330
343 343 340 341 340 340 339 339 338 336 332 327 326 326 323 322 326 329 331 330 327 327 331 333 335 336 337 337 337 337 335 334 334 333 332 334 332 326 323 323 320 326 331
344 342 341 340 340 339 338 337 335 331 321 318 317 315 315 315 314 314 313 313 312 312 314 315 317 322 324 331 335 336 337 337 336 335 334 338 337 335 328 318 319 321 323
341 342 341 340 339 338 337 335 328 317 314 311 310 309 308 308 308 308 308 308 308 308 308 309 309 309 310 314 318 328 335 336 336 335 334 335 335 338 336 332 319 318 322
340 341 340 339 339 338 335 323 315 311 310 309 308 308 308 309 309 309 310 310 310 310 310 310 310 310 310 310 309 311 317 327 333 334 334 335 335 335 336 335 329 328 319
338 340 339 338 336 334 321 312 310 309 308 308 309 309 309 309 309 309 309 309 309 309 309 309 309 309 310 310 310 310 310 311 314 321 328 330 334 333 335 335 334 332 329
338 338 337 335 332 318 311 310 309 308 308 309 309 309 309 309 309 309 308 308 308 307 307 307 307 308 308 310 310 311 311 310 310 313 326 330 330 333 336 336 334 334 334
337 336 335 331 316 311 309 309 308 308 308 309 309 309 309 309 308 308 308 308 307 307 307 307 307 307 307 308 310 312 314 317 319 321 324 329 330 331 333 334 332 331 331
335 334 329 316 311 309 309 308 308 308 309 308 308 308 308 308 308 309 309 308 307 307 306 306 306 307 307 308 309 312 315 315 317 319 321 322 325 328 329 329 326 326 328
334 327 317 311 310 309 308 309 308 308 308 308 308 308 308 309 309 308 308 307 306 305 305 304 305 306 307 310 311 311 314 315 315 318 319 320 321 322 321 323 324 324 326
327 319 312 310 309 308 308 308 308 308 308 308 308 308 309 309 308 307 307 306 305 305 304 303 304 304 305 309 313 312 313 316 317 317 317 318 318 318 318 318 320 321 322
322 313 311 310 309 308 308 308 308 308 307 307 308 308 308 309 308 307 306 305 305 304 303 303 303 303 304 307 310 312 312 315 318 318 318 318 318 317 316 318 319 320 320
316 312 311 309 308 308 308 308 308 307 307 307 308 308 309 309 308 307 306 305 305 304 303 303 303 303 304 307 307 311 313 315 316 318 318 318 319 319 317 316 315 315 315
314 311 310 309 309 308 308 308 308 307 307 307 308 308 309 308 307 306 306 306 305 305 304 303 303 303 304 305 306 312 315 316 317 318 318 317 317 316 315 315 315 315 315
314 311 310 309 309 309 308 308 309 308 307 307 308 308 308 308 307 306 306 306 306 305 304 304 303 303 303 303 308 315 316 316 317 316 316 315 315 314 315 315 315 316 317
313 312 310 309 309 309 309 309 309 308 307 307 307 308 308 308 307 306 306 306 306 305 305 304 304 303 303 302 306 314 315 315 315 314 313 313 312 312 312 312 313 313 313
313 312 310 310 310 309 310 310 310 308 307 307 307 308 308 307 307 306 306 306 306 306 305 305 305 304 304 302 304 311 314 312 311 310 311 310 310 310 310 310 310 310 310
313 313 311 310 310 310 310 310 309 308 308 307 308 307 307 307 306 306 306 306 306 306 306 305 305 305 304 304 302 305 310 314 313 310 309 310 309 308 307 304 304 307 307
314 313 311 310 310 310 310 310 308 308 308 307 306 306 306 306 306 306 306 306 306 306 306 306 306 305 304 304 302 305 308 311 313 308 309 308 307 306 305 302 299 299 300
314 313 312 311 311 310 310 309 309 307 307 307 306 306 306 306 306 306 306 306 306 306 306 306 306 305 305 304 303 303 303 307 304 308 308 308 308 306 304 303 301 297 295
314 313 313 311 311 310 310 309 307 307 306 306 307 307 307 307 307 307 307 307 306 306 306 306 305 305 305 304 304 304 302 303 304 304 307 306 306 304 304 301 301 297 295
313 313 312 311 311 310 310 308 307 307 307 307 307 307 307 307 307 307 307 308 307 307 306 306 306 306 305 304 303 302 302 302 302 304 305 304 304 303 302 301 299 297 295
310 310 311 310 310 310 310 308 308 308 308 307 307 306 306 306 307 307 307 307 308 307 307 306 306 306 305 304 303 303 302 302 302 302 301 301 299 299 301 300 298 298 297
Wind_Speed
7 11 11 9 9 8 5 5 6 6 8 8 9 9 10 10 11 11 10 9 8 8 7 6 7 8 8 9 8 7 7 6 6 5 5 5 5 6 6 6 4 9 5
10 12 13 11 8 5 5 6 6 6 6 7 8 8 8 8 9 9 9 9 8 8 7 6 9 8 8 8 9 9 8 8 8 7 7 6 6 9 10 8 7 7 6
12 12 13 10 8 7 6 6 6 6 6 6 7 7 7 7 7 7 7 7 8 8 8 8 9 9 9 9 9 9 9 9 8 8 7 6 10 12 15 14 9 7 5
13 11 12 10 8 8 7 6 5 4 4 4 5 6 6 7 7 7 8 8 9 9 9 8 9 11 12 12 11 11 11 10 10 9 8 4 5 10 15 14 10 6 4
19 14 13 11 10 8 6 4 2 3 4 5 6 6 8 8 9 10 10 11 12 12 12 12 12 13 13 12 13 13 13 13 11 10 7 9 12 12 13 11 10 8 7
18 15 13 11 8 6 4 2 2 3 5 6 6 7 9 9 10 11 12 12 13 13 13 14 14 14 15 15 16 15 14 14 14 12 7 6 12 16 13 12 11 11 11
16 15 14 10 7 5 2 1 3 4 5 7 8 9 9 10 11 11 12 13 13 14 14 15 16 16 16 16 17 17 17 17 16 15 11 8 11 14 17 16 13 12 12
15 15 12 9 6 3 1 2 3 5 6 7 8 8 9 9 10 11 11 13 14 15 15 16 16 17 17 17 18 19 18 18 18 17 15 11 12 17 17 16 15 14 13
13 13 11 8 5 3 1 2 3 5 6 7 7 7 8 9 10 11 12 13 14 14 14 14 15 15 15 15 16 17 18 19 19 18 15 14 16 16 19 18 16 16 14
14 11 9 8 5 4 0 2 3 4 5 6 7 8 9 9 11 11 12 12 12 13 13 13 14 13 13 12 12 13 14 15 14 9 13 12 15 18 19 17 16 15 14
14 12 10 7 5 1 1 1 2 4 5 5 7 8 10 12 11 12 11 12 13 13 14 13 13 13 12 12 11 11 8 5 6 9 12 12 14 18 17 17 17 17 17
15 12 10 7 4 2 0 2 4 5 6 7 7 8 8 9 10 11 13 14 15 14 16 16 15 14 14 13 11 10 9 9 8 6 11 14 17 19 22 23 20 18 17
15 13 9 7 5 3 1 1 2 4 5 6 6 7 7 8 9 11 12 14 15 16 16 16 14 14 14 13 13 10 10 8 5 3 11 15 18 21 22 20 14 14 13
16 12 9 7 5 3 2 0 2 4 5 6 7 7 8 9 10 11 12 14 15 16 16 16 15 15 13 11 12 11 10 7 7 6 11 13 17 17 13 12 13 13 14
16 13 9 7 5 4 2 0 2 4 6 6 7 7 8 9 10 11 12 14 16 16 16 15 14 14 12 11 10 10 10 7 9 6 9 11 13 12 10 9 10 8 8
15 12 10 8 6 3 1 1 3 5 6 6 6 7 8 9 11 12 13 14 14 15 14 14 14 13 12 11 10 8 10 5 6 5 8 9 10 11 10 9 12 12 13
15 12 10 8 6 3 2 2 3 4 6 6 6 7 8 9 11 13 13 14 15 14 14 13 13 13 11 11 9 8 8 8 5 3 4 6 8 12 6 6 8 9 9
14 12 10 8 5 4 2 2 3 5 6 6 6 7 8 10 12 13 13 14 14 14 15 15 15 15 13 13 9 9 5 2 1 3 4 7 11 13 10 9 9 9 9
13 12 10 8 6 4 2 2 4 5 6 5 5 7 9 11 13 13 13 13 14 14 14 15 15 15 14 14 7 6 6 1 2 4 6 7 9 9 10 11 11 11 11
14 12 11 9 7 4 3 4 5 5 5 5 6 8 9 12 13 13 13 12 13 13 13 14 16 15 14 15 9 0 8 7 9 8 8 11 11 11 11 12 12 14 16
15 13 12 10 7 6 4 5 6 5 5 6 7 9 10 12 12 13 12 12 12 13 14 15 15 16 15 15 13 6 3 9 10 11 11 7 5 9 13 13 14 13 15
15 14 13 11 9 8 6 5 5 5 7 8 10 10 10 11 12 13 12 12 12 12 13 13 14 15 14 15 15 7 3 3 2 9 9 11 12 11 17 20 18 14 15
17 17 15 13 11 10 7 6 5 5 6 6 7 9 10 11 13 13 13 13 13 13 13 14 14 14 14 13 11 8 5 3 11 3 9 12 13 15 19 20 19 17 15
17 17 16 15 14 11 8 7 6 5 5 7 9 10 12 13 13 14 14 14 14 14 14 14 14 13 13 13 9 9 7 8 4 6 6 10 8 13 20 21 19 18 15
18 19 17 17 16 13 11 9 6 5 6 7 9 11 12 15 16 16 16 15 15 15 15 15 14 14 14 13 12 12 11 8 7 11 19 7 13 14 20 19 19 18 15
18 19 19 19 17 15 12 10 7 6 7 10 10 12 14 16 18 21 20 18 17 17 16 16 16 15 14 14 14 13 12 12 10 13 15 17 17 12 9 17 20 17 16
Wind_Direction
163 164 152 141 134 127 104 94 80 66 60 55 48 43 40 38 39 39 39 38 35 35 28 3 7 4 9 10 9 4 356 352 346 335 322 325 335 338 354 5 1 1 355
168 165 147 145 142 126 109 96 81 66 58 51 41 34 32 30 27 24 22 21 17 13 9 359 352 344 346 348 348 350 354 352 346 341 334 327 324 336 328 323 325 331 337
160 156 146 148 139 129 119 108 91 73 55 46 37 28 22 17 12 10 4 3 359 355 349 339 332 331 333 333 332 333 335 337 342 341 343 21 353 330 317 316 309 310 318
152 154 148 144 138 134 127 110 92 60 30 9 354 348 338 332 328 328 328 327 325 322 320 321 320 321 320 320 320 320 321 323 326 330 340 336 331 301 300 312 310 298 290
155 157 149 145 142 133 122 107 76 19 353 341 335 329 326 323 321 321 319 320 320 318 314 312 307 305 306 309 310 311 314 313 312 321 333 352 317 292 291 303 296 298 287
162 165 156 149 148 138 129 110 13 348 345 340 337 332 328 328 326 323 322 321 318 314 311 307 302 299 297 295 295 299 301 299 299 304 307 306 295 308 305 299 291 286 286
165 163 157 154 154 149 142 19 346 346 342 334 333 332 332 332 332 329 328 324 321 317 313 311 308 303 299 294 289 287 286 289 294 298 298 258 282 285 302 303 296 286 282
166 158 158 158 161 157 159 332 340 337 335 336 338 338 337 338 337 333 335 331 330 327 324 320 313 307 302 296 291 287 284 283 283 288 291 277 269 273 278 293 292 289 284
154 156 161 165 167 170 209 326 334 339 342 343 346 345 345 342 346 345 349 345 340 337 334 330 327 323 317 310 301 293 288 285 285 287 288 282 276 274 277 279 282 284 285
158 158 159 165 173 157 185 330 343 350 349 352 356 356 350 348 356 1 353 349 347 345 343 340 337 335 334 327 317 312 308 300 299 308 316 302 279 278 272 279 281 286 288
167 167 168 168 175 189 145 359 4 1 354 1 6 1 357 359 358 354 352 351 350 346 344 340 341 336 331 327 332 333 355 24 331 314 292 281 276 277 280 281 287 295 293
171 169 170 173 180 170 178 14 17 8 7 6 5 2 1 353 354 352 351 355 352 351 346 345 342 340 338 338 338 340 331 304 273 265 283 283 273 269 275 283 289 291 294
175 171 170 176 183 184 149 354 0 4 356 356 356 357 356 352 356 356 355 354 356 356 353 351 348 344 345 348 339 342 338 338 335 281 286 283 282 279 282 277 284 287 289
174 170 171 182 183 185 182 310 357 356 349 347 351 353 352 359 359 357 359 360 358 357 357 354 352 350 351 354 357 352 349 356 328 280 278 290 287 292 295 298 297 296 291
175 170 176 188 190 190 185 310 345 348 342 341 348 353 359 359 1 3 4 3 2 2 359 357 355 355 357 357 347 4 355 7 342 352 316 305 309 318 286 272 276 282 294
176 174 182 190 195 202 213 319 339 338 333 335 348 355 3 360 1 6 7 5 4 2 2 1 360 359 3 359 356 20 343 1 329 360 312 316 326 324 307 295 297 295 292
178 182 188 193 204 214 247 311 335 329 329 338 347 354 358 359 0 4 1 3 5 4 5 3 4 2 8 359 9 24 2 6 34 27 336 338 333 329 319 314 312 307 305
184 191 194 199 213 234 256 318 338 333 329 339 340 349 350 352 358 357 358 2 5 6 7 7 7 6 5 2 29 24 30 43 161 27 335 312 328 341 5 359 347 337 330
191 199 203 207 222 237 255 318 328 328 325 331 331 335 340 343 351 349 354 1 2 5 6 6 11 7 6 6 18 26 353 285 249 313 336 333 334 331 329 331 324 319 311
200 203 211 214 228 237 255 305 317 324 318 317 315 324 332 336 341 344 348 352 355 358 0 4 6 6 3 3 4 38 283 303 337 334 329 345 347 333 320 316 316 313 310
209 210 218 221 226 231 250 294 320 318 317 312 311 320 324 334 334 335 340 341 345 347 353 359 2 1 2 1 3 21 299 297 336 354 351 351 336 342 330 338 327 314 309
215 219 225 228 229 231 250 283 282 289 306 310 310 318 331 329 328 329 331 328 330 336 342 348 352 354 359 355 1 7 3 300 288 292 314 344 327 325 315 331 334 331 325
221 224 230 231 234 231 242 267 261 280 296 301 315 335 337 333 328 326 325 321 320 326 331 336 342 344 348 350 354 359 342 330 321 19 316 342 331 327 332 332 335 335 336
227 231 232 233 233 233 241 251 257 276 295 305 320 328 328 326 324 323 324 321 319 318 321 325 328 331 332 334 336 315 317 296 310 294 242 328 340 322 314 320 331 331 336
233 236 235 233 231 231 236 240 242 261 293 311 314 317 322 326 326 325 319 316 316 313 313 314 316 317 319 316 312 312 311 297 283 270 287 281 272 289 303 307 319 327 331
235 236 233 233 228 227 232 230 236 268 303 311 311 314 319 320 319 316 314 312 308 307 309 309 308 310 310 306 301 298 295 292 277 272 280 292 301 314 265 291 306 320 327